Время (UTC), дата Ветер
(°,м/с) 
Видим.   Явления Облачность Т
(°С)
Тd
(°С)
f(%) Тe
(°С)
Pmin
(гПа)
dP
(гПа)
Po
(мм)
O2
(г/м3)
Тmin Tmax R s Состояние
почвы
00 01.05.10 130 (ЮВ) >10 км    ясно 
+5.7 +3 83 +4  1018.4  -0.2  723  285           
03 01.05.10 150 (ЮВ) >10 км    3/0 верхняя 
[Ci fib]
+5.8 +2.9 82 +4  1018.6  0.3  723  285           
06 01.05.10 140 (ЮВ) >10 км    ясно 
+11 +3.6 60 +10  1017.9  0.2  723  280  +4.4         
09 01.05.10 110 (В) >10 км    ясно 
+15.4 +4.3 47 +15  1017.1  723  275           
12 01.05.10 130 (ЮВ) >10 км    ясно 
+17.5 +3 38 +17  1016.2  -0.4  723  273           
15 01.05.10 110 (В) >10 км    ясно 
+15.7 +2.9 42 +15  1016.7  0.1  723  275           
18 01.05.10 110 (В) >10 км    ясно 
+10.1 +2.9 61 +9  1018.7  0.9  724  281    +18.2       
21 01.05.10 110 (В) >10 км    ясно 
+7.3 +1.9 68 +6  1019.3  724  284           
00 02.05.10 130 (ЮВ) >10 км    ясно 
+4.6 +2.1 84 +3  1020.2  0.4  724  287           
03 02.05.10 120 (ЮВ) 2000 м  дымка  10/10 100 м 
[St]
+5.2 +4.7 97 +3  1020.1  724  286           
06 02.05.10 120 (ЮВ) 10 км    10/10 180 м 
[St]
+6.7 +4.4 85 +4  1020.7  0.9  725  284  +3.8         
09 02.05.10 110 (В) >10 км    9/8 330 м средняя 
[Sc|Ac trans]
+10.7 +5.9 72 +9  1020.1  0.1  725  280           
12 02.05.10 120 (ЮВ) >10 км    9/6 900 м средняя 
[Sc|Ac trans]
+13.7 +6.7 63 +12  1018.2  -1.1  724  277           
15 02.05.10 130 (ЮВ) >10 км    6/6 900 м 
[Sc]
+13.5 +6.8 64 +13  1017.7  -0.6  724  277           
18 02.05.10 100 (В) >10 км    8/8 1200 м 
[Sc]
+10.9 +7.1 77 +10  1018  -0.2  723  279    +15.5       
21 02.05.10 100 (В) >10 км    4/4 1000 м 
[Sc]
+9.9 +6.5 79 +9  1017.6  -0.5  723  279           
00 03.05.10 100 (В) >10 км    6/6 1000 м 
[Sc]
+7.5 +6.2 91 +5  1017.9  -0.2  723  282           
03 03.05.10 100 (В) >10 км    10/5 1000 м средняя 
[Sc|Ac und]
+8.2 +6.2 87 +7  1017  -0.7  722  282           
06 03.05.10 090 (В) >10 км  слаб. дождь  9/6 480 м средняя 
[Sc|Ac trans]
+10.8 +8.5 86 +9  1018.1  1.5  724  279  +7         
09 03.05.10 100 (В) >10 км  в посл. час ливневой дождь  10/6 500 м кучево-дожд., средняя 
[Cb calv|Ac und]
+13.4 +9 75 +13  1018.1  0.6  724  276           
12 03.05.10 100 (В) >10 км  слаб. ливневой дождь  10/6 660 м кучево-дожд., средняя 
[Cb cap|Ac und]
+12 +7.7 75 +10  1017.9  0.3  724  278           
15 03.05.10 100 (В) 10  >10 км    9/3 600 м кучево-дожд., средняя 
[Cb calv|Ac trans]
+12.2 +7 70 +10  1019.1  0.3  724  278           
18 03.05.10 120 (ЮВ) >10 км  {ливн. осадки}  5/3 600 м кучево-дожд., средняя 
[Cb calv|Ac trans]
+9.6 +7.1 84 +8  1020.3  0.6  725  281    +13.5  0.0     
21 03.05.10 130 (ЮВ) >10 км    8/4 600 м кучево-дожд., средняя 
[Cb calv|Ac trans]
+8.5 +5.5 81 +7  1020  -0.4  725  282           
00 04.05.10 110 (В) >10 км    8/4 600 м кучево-дожд., средняя 
[Cb calv|Ac trans]
+8.1 +5.1 81 +6  1019.5  -0.6  724  282           
03 04.05.10 090 (В) >10 км    10/3 1000 м средняя 
[Sc|Ac und]
+7.4 +5.6 88 +5  1020.7  725  283           
06 04.05.10 120 (ЮВ) >10 км    8/3 600 м средняя, верхняя 
[Cu hum|Ac trans|Ci fib]
+12.4 +7 70 +11  1019.5  -0.2  725  278  +6.6         
09 04.05.10 100 (В) >10 км    9/8 600 м кучево-дожд., средняя 
[Cb calv|Ac trans]
+14.6 +5.8 55 +13  1018.7  -0.4  724  276           
12 04.05.10 110 (В) >10 км    9/8 600 м кучево-дожд., средняя 
[Cb calv|Ac trans]
+15.2 +6.1 55 +14  1017.6  -0.9  724  275           
15 04.05.10 100 (В) >10 км    8/3 1000 м кучево-дожд., средняя 
[Cb calv|Ac trans]
+15 +5.8 54 +14  1018  0.4  724  276           
18 04.05.10 120 (ЮВ) >10 км    4/0 средняя 
[Ac trans]
+9.2 +6.2 81 +9  1019.5  0.4  724  281    +17.2       
21 04.05.10 110 (В) >10 км    ясно 
+7.8 +5.8 87 +7  1018.9  -0.9  724  282           
00 05.05.10 120 (ЮВ) >10 км    3/0 средняя 
[Ac trans]
+7 +5.9 93 +6  1018.3  -0.7  723  283           
03 05.05.10 110 (В) >10 км    3/0 средняя 
[Ac trans]
+7.7 +6.5 92 +6  1018.7  -0.5  724  282           
06 05.05.10 100 (В) >10 км    3/0 средняя 
[Ac trans]
+14.9 +8 63 +15  1017.2  -0.1  723  275  +5.5         
09 05.05.10 090 (В) >10 км    3/1 600 м средняя 
[Cu hum|Ac trans]
+19.6 +5.6 40 +20  1015.9  -0.5  723  271           
12 05.05.10 080 (В) >10 км    8/5 600 м кучево-дожд., средняя 
[Cb calv|Ac trans]
+19.2 +6.4 43 +19  1014.7  -1.1  722  271           
15 05.05.10 100 (В) >10 км    9/3 1000 м средняя 
[Sc diur, vesp|Ac trans]
+17.8 +8.2 53 +18  1014.9  -0.1  722  272           
18 05.05.10 140 (ЮВ) >10 км    3/0 средняя 
[Ac trans]
+13.8 +8.6 71 +14  1015.8  0.2  722  275    +22.2       
21 05.05.10 100 (В) >10 км    3/0 средняя 
[Ac trans]
+11.3 +7.8 79 +11  1015.7  -0.6  722  278           
00 06.05.10 130 (ЮВ) >10 км    ясно 
+10.4 +8 85 +10  1016.2  0.3  722  279           
03 06.05.10 150 (ЮВ) >10 км    1/0 средняя 
[Ac trans]
+10.8 +8.2 84 +11  1016.2  0.1  722  278           
06 06.05.10 100 (В) >10 км    ясно 
+17.6 +11 65 +21  1015.7  0.8  723  272  +9.6         
09 06.05.10 090 (В) >10 км    ясно 
+21.5 +4.3 32 +22  1014.3  -0.8  722  269           
12 06.05.10 100 (В) >10 км    1/1 600 м 
[Cu hum]
+23.8 +3.2 26 +24  1013.1  -0.7  722  267           
15 06.05.10 100 (В) >10 км    1/1 1000 м 
[Cu hum]
+22.8 +3.4 28 +23  1013  -0.3  721  268           
18 06.05.10 140 (ЮВ) >10 км    3/0 средняя 
[Ac trans]
+16.1 +6.4 53 +16  1014.7  0.5  722  274    +24.5       
21 06.05.10 060 (СВ) >10 км    ясно 
+14.4 +7.6 64 +15  1014.4  -0.6  721  275           
00 07.05.10 120 (ЮВ) >10 км    ясно 
+11.7 +7.8 77 +12  1013.9  -0.9  721  277           
03 07.05.10 070 (В) >10 км    3/0 верхняя 
[Ci fib]
+13.3 +9.4 77 +15  1013.3  -0.3  720  275  +10.7        сухая 
06 07.05.10 090 (В) >10 км    ясно 
+20.5 +9.9 51 +22  1011.5  -0.4  720  268  +10.7         
09 07.05.10 100 (В) >10 км    4/4 600 м 
[Cu med, cong]
+23 +4.6 30 +23  1010.7  -0.4  720  267           
12 07.05.10 110 (В) >10 км    4/4 1000 м 
[Cu med, cong]
+24.4 +4.6 28 +24  1009.2  -1.2  719  265           
15 07.05.10 120 (ЮВ) >10 км    4/4 1000 м 
[Sc diur, vesp]
+22.8 +5.3 32 +23  1008.4  -1  718  266           
18 07.05.10 150 (ЮВ) >10 км    ясно <0100 м 
+17.6 +5.8 46 +18  1009.7  0.3  718  271    +24.8       
21 07.05.10 080 (В) >10 км    ясно <0100 м 
+14.4 +6.5 59 +15  1010  -0.3  718  274           
00 08.05.10 190 (Ю) >10 км    ясно <0100 м 
+15.2 +6.1 55 +16  1008.8  -1  717  273           
03 08.05.10 170 (Ю) >10 км    3/0 средняя 
[Ac trans]
+14.5 +5.9 56 +16  1009.2  0.3  718  274           
06 08.05.10 100 (В) >10 км    3/0 верхняя 
[Ci fib]
+20.3 +8.5 47 +20  1008.9  0.7  718  268  +12.5         
09 08.05.10 100 (В) >10 км    3/0 верхняя 
[Ci fib]
+24.5 +4.1 27 +25  1008.3  0.1  718  265           
12 08.05.10 100 (В) >10 км    5/1 600 м верхняя 
[Cu hum|Ci fib]
+24.6 +4.1 26 +25  1007.8  -0.4  718  265           
15 08.05.10 110 (В) >10 км    8/3 1000 м средняя 
[Sc|Ac trans]
+21.6 +7.6 40 +22  1008.2  -0.1  718  267           
18 08.05.10 160 (Ю) >10 км    4/0 средняя 
[Ac trans]
+18.1 +6.7 47 +19  1009.3  0.4  718  270    +24.8       
21 08.05.10 260 (З) >10 км    4/0 средняя 
[Ac trans]
+15.5 +7.4 58 +15  1010.2  0.4  719  273           
00 09.05.10 260 (З) >10 км    ясно 
+14.4 +6.8 60 +15  1009.6  -0.7  718  274           
03 09.05.10 320 (СЗ) >10 км    6/0 средняя 
[Ac trans]
+15.8 +10.2 69 +19  1009.4  0.1  718  272           
06 09.05.10 330 (СЗ) >10 км    9/0 средняя 
[Ac trans]
+18.3 +11.3 64 +23  1009.5  0.5  720  270  +12.2         
09 09.05.10 010 (С) >10 км    10/0 средняя 
[Ac und]
+20.1 +11.9 59 +25  1008.9  -0.3  718  267           
12 09.05.10 070 (В) >10 км    8/5 600 м кучево-дожд., средняя 
[Cb calv|Ac trans]
+23.5 +11 45 +27  1007.4  -0.8  718  264           
15 09.05.10 330 (СЗ) >10 км    5/3 1000 м средняя 
[Sc|Ac trans]
+22.3 +11.7 51 +27  1006.2  -1.3  717  265           
18 09.05.10 110 (В) >10 км    8/0 средняя 
[Ac trans]
+18.3 +9.2 55 +20  1006.9  -0.1  717  269    +23.9       
21 09.05.10 150 (ЮВ) >10 км    9/0 средняя 
[Ac trans]
+16.5 +9.4 63 +18  1006.7  -0.4  716  270           
00 10.05.10 110 (В) >10 км    4/0 средняя 
[Ac trans]
+13.8 +9 73 +15  1006.9  -0.4  716  273           
03 10.05.10 130 (ЮВ) >10 км    8/0 средняя 
[Ac trans]
+15.4 +9.8 69 +18  1006.4  -0.2  716  271           
06 10.05.10 110 (В) >10 км    8/0 верхняя 
[Ci]
+20.3 +11.7 58 +25  1005.3  -0.1  716  266  +13         
09 10.05.10 100 (В) >10 км    8/0 средняя, верхняя 
[Ac trans|Ci]
+25.4 +5.5 28 +25  1004.2  -0.3  716  263           
12 10.05.10 110 (В) >10 км    9/1 600 м кучево-дожд., средняя, верхняя 
[Cb calv|Ac trans|Ci fib]
+24.6 +6.2 31 +25  1004.4  716  263           
15 10.05.10 280 (З) >10 км    10/4 600 м кучево-дожд., средняя 
[Cb calv|Ac und]
+17.5 +11.7 69 +21  1006.9  1.3  716  269           
18 10.05.10 310 (СЗ) >10 км    10/4 600 м кучево-дожд., средняя 
[Cb calv|Ac und]
+14.8 +11.4 80 +18  1009.3  1.9  718  272    +25.7       
21 10.05.10 300 (СЗ) >10 км    9/4 600 м кучево-дожд., средняя 
[Cb calv|Ac trans]
+13.7 +11.9 89 +18  1010.4  0.8  719  273           
00 11.05.10 320 (СЗ) >10 км    10/8 570 м кучево-дожд., средняя 
[Cb calv|Ac und]
+13.8 +12.1 89 +19  1011.2  0.8  719  273           
03 11.05.10 360 (С) >10 км  слаб. ливневой дождь  10/8 120 м кучево-дожд., средняя 
[Cb cap|Ac und]
+13.3 +12.5 95 +20  1012.5  1.1  720  274           
06 11.05.10 010 (С) 4000 м  слаб. ливневой дождь  10/8 100 м кучево-дожд., средняя 
[Cb cap|Ac und]
+13.8 +11.5 86 +19  1013.9  1.5  721  274  +13.2       
09 11.05.10 020 (С) >10 км  слаб. ливневой дождь  10/8 210 м кучево-дожд., средняя 
[Cb cap|Ac und]
+13.8 +12.7 93 +20  1014.5  0.5  721  274           
12 11.05.10 050 (СВ) >10 км  {ливн. осадки}  9/8 400 м кучево-дожд., средняя 
[Cb calv|Ac trans]
+16 +12.2 78 +22  1013.4  -0.6  721  272           
15 11.05.10 330 (СЗ) >10 км    8/5 600 м кучево-дожд., средняя 
[Cb calv|Ac trans]
+17.1 +11.8 71 +22  1013.5  0.2  721  271           
18 11.05.10 330 (СЗ) >10 км    5/3 1000 м кучево-дожд., средняя 
[Cb calv|Ac trans]
+14 +11.8 87 +19  1015.2  1.1  722  274    +18  12     
21 11.05.10 240 (ЮЗ) >10 км    ясно 
+11.6 +10.3 92 +14  1015.4  -0.2  722  277           
00 12.05.10 300 (СЗ) >10 км    ясно 
+11.8 +9.7 87 +14  1015.4  722  277           
03 12.05.10 300 (СЗ) >10 км    6/3 600 м средняя 
[Sc|Ac trans]
+12.3 +9.2 81 +13  1016.1  -0.7  722  277           
06 12.05.10 030 (СВ) >10 км    6/6 600 м 
[Cu med, cong]
+17 +11.9 72 +23  1015.4  0.2  722  272  +9.5         
09 12.05.10 040 (СВ) >10 км    8/8 600 м 
[Cu med, cong]
+20.1 +12.5 62 +26  1014.4  -0.3  722  269           
12 12.05.10 090 (В) >10 км  гроза без осадков  9/6 600 м кучево-дожд., средняя 
[Cb calv|Ac trans]
+19.4 +11.9 62 +25  1014.2  -0.4  722  269           
15 12.05.10 340 (С) >10 км  в посл. час гроза{ливн. осадки}  9/6 600 м кучево-дожд., средняя 
[Cb cap|Ac trans]
+16 +12 77 +22  1014  -0.8  721  272           
18 12.05.10 320 (СЗ) >10 км  гроза, ливневой дождь  10/8 600 м кучево-дожд., средняя 
[Cb cap|Ac und]
+13.3 +11 86 +16  1015.6  722  275    +20.8     
21 12.05.10 330 (СЗ) 10 км  гроза, ливневой дождь  10/8 420 м кучево-дожд., средняя 
[Cb cap|Ac und]
+11.4 +9.7 89 +13  1015.5  -0.4  722  277           
00 13.05.10 180 (Ю) >10 км  гроза без осадков{ливн. осадки}  8/5 480 м кучево-дожд., средняя 
[Cb calv|Ac trans]
+11.7 +11 95 +16  1014.6  -0.8  721  277           
03 13.05.10 020 (С) >10 км  гроза без осадков{ливн. осадки}  9/6 600 м кучево-дожд., средняя 
[Cb calv|Ac trans]
+12.1 +11 93 +15  1015.5  0.9  722  276           
06 13.05.10 120 (ЮВ) >10 км  {гроза, ливн. осадки}  8/6 480 м кучево-дожд., средняя 
[Cb calv|Ac trans]
+16.1 +12.8 81 +22  1015.5  0.7  722  272  +11    32     
09 13.05.10 140 (ЮВ) >10 км    8/5 600 м верхняя 
[Cu hum|Ci fib]
+19.4 +12.3 63 +25  1014.6  -0.2  722  269           
12 13.05.10 140 (ЮВ) >10 км    8/8 700 м кучево-дожд. 
[Cb calv]
+21.2 +11.5 54 +25  1013.9  -0.4  722  268           
15 13.05.10 090 (В) >10 км  в посл. час ливневой дождь  6/6 660 м кучево-дожд. 
[Cb calv]
+19.6 +12.9 65 +27  1013.3  -0.8  721  269           
18 13.05.10 180 (Ю) >10 км  {ливн. осадки}  3/3 600 м кучево-дожд. 
[Cb calv]
+16.4 +13 80 +23  1013.9  721  272    +21.7     
21 13.05.10 120 (ЮВ) >10 км    ясно 
+15.1 +12.7 86 +22  1014  -0.2  721  273           
00 14.05.10 190 (Ю) >10 км    ясно 
+14.1 +12.3 89 +19  1013.3  -0.8  721  274           
03 14.05.10 170 (Ю) >10 км    ясно 
+14.6 +12.8 89 +21  1012.6  -0.6  720  273           
06 14.05.10 120 (ЮВ) >10 км    4/0 верхняя 
[Ci fib]
+19.1 +14.7 76 +29  1011.9  0.2  720  268  +12.5         
09 14.05.10 110 (В) >10 км    6/6 700 м 
[Cu med, cong]
+23.3 +14.3 57 +32  1010.9  -0.3  720  264           
12 14.05.10 100 (В) >10 км    5/5 600 м 
[Cu med, cong]
+24.6 +13.7 51 +32  1010  -0.6  720  263           
15 14.05.10 130 (ЮВ) >10 км    4/3 600 м верхняя 
[Cu hum|Ci fib]
+23.3 +14.8 59 +33    -0.1  720  264           
18 14.05.10 140 (ЮВ) >10 км    8/0 средняя, верхняя 
[Ac trans|Ci fib]
+18.5 +14.3 77 +28  1010.7  -0.2  719  268    +24.8       
21 14.05.10 130 (ЮВ) >10 км    3/0 средняя 
[Ac trans]
+16.5 +13.8 84 +25  1010.6  -0.5  719  270           
00 15.05.10 170 (Ю) >10 км  слаб. ливневой дождь  5/3 600 м кучево-дожд., средняя 
[Cb cap|Ac trans]
+15.5 +12.2 81 +20  1010.8  -0.8  719  272           
03 15.05.10 220 (ЮЗ) >10 км    9/4 600 м кучево-дожд., средняя 
[Cb calv|Ac trans]
+17.7 +13.8 78 +27  1010.8  0.6  719  269           
06 15.05.10 140 (ЮВ) >10 км  {ливн. осадки}  4/0 средняя 
[Ac trans]
+20.6 +15.2 71 +31  1010.7  0.4  720  266  +15.1    0.3     
09 15.05.10 280 (З) >10 км    4/4 600 м 
[Cu hum]
+24.3 +15.1 56 +34  1010.8  0.7  720  263           
12 15.05.10 310 (СЗ) >10 км    4/4 600 м 
[Cu med, cong]
+25.1 +11.3 42 +29  1010.7  720  264           
15 15.05.10 тихо ()   >10 км    4/3 600 м средняя 
[Cu med, cong|Ac trans]
+25.2 +13.4 48 +32  1011.1  0.4  720  263           
18 15.05.10 310 (СЗ) >10 км    3/0 средняя 
[Ac trans]
+19.7 +15.3 76 +31  1012.1  0.1  721  267    +25.6       
21 15.05.10 330 (СЗ) >10 км    ясно 
+18.6 +15.6 83 +31  1010.6  -1.6  719  268           
00 16.05.10 100 (В) >10 км    ясно 
+16.6 +12.8 78 +24  1010.6  -0.4  719  271           
03 16.05.10 170 (Ю) >10 км    10/3 1500 м средняя 
[Sc|Ac und]
+17.2 +13.5 79 +25  1009.8  -0.6  719  270           
06 16.05.10 150 (ЮВ) >10 км    5/0 средняя, верхняя 
[Ac trans|Ci fib]
+22.8 +14.1 58 +31  1008.2  -0.6  718  264  +16.4         
09 16.05.10 130 (ЮВ) >10 км    8/0 средняя 
[Ac trans]
+25.4 +12 43 +30  1007.4  -0.4  718  262           
12 16.05.10 200 (Ю) >10 км    10/4 1000 м кучево-дожд., средняя 
[Cb calv|Ac und]
+24 +12.7 49 +30  1007.4  -0.2  718  263           
15 16.05.10 180 (Ю) >10 км    9/3 1000 м кучево-дожд., средняя 
[Cb calv|Ac trans]
+24.7 +13 48 +31  1006.8  -0.4  717  263           
18 16.05.10 180 (Ю) >10 км    3/0 средняя 
[Ac trans]
+20 +12 60 +25  1007.5  -0.2  717  267    +25.9       
21 16.05.10 140 (ЮВ) >10 км    ясно 
+18.1 +12.7 71 +25  1007.4  -0.3  717  268           
00 17.05.10 210 (ЮЗ) >10 км    ясно 
+16.4 +12.4 77 +22  1007.4  -0.4  717  270           
03 17.05.10 160 (Ю) >10 км    3/0 средняя 
[Ac trans]
+17.4 +13.7 79 +26  1006.7  -0.5  716  269           
06 17.05.10 100 (В) >10 км    8/0 средняя, верхняя 
[Ac trans|Ci]
+22.1 +15.2 65 +32  1005.5  -0.3  716  264  +16.2         
09 17.05.10 120 (ЮВ) >10 км    3/0 верхняя 
[Ci fib]
+26.2 +15.9 53 +38  1004  -0.7  716  260           
12 17.05.10 100 (В) >10 км    3/0 верхняя 
[Ci fib]
+27.5 +12.6 40 +33  1002.1  -1.7  714  259           
15 17.05.10 140 (ЮВ) >10 км    8/5 600 м кучево-дожд., верхняя 
[Cb calv|Ci]
+24.8 +11.3 43 +29  1001.4  -1  714  261           
18 17.05.10 310 (СЗ) 10 км  гроза, ливневой дождь  10/8 330 м кучево-дожд., средняя 
[Cb cap|Ac und]
+15.8 +13.8 88 +24  1007  3.8  716  270    +27.9       
21 17.05.10 240 (ЮЗ) >10 км  в посл. час ливневой дождь{гроза}  10/3 600 м кучево-дожд., средняя 
[Cb calv|Ac und]
+13.6 +12.3 92 +18  1010.4  2.8  719  273           
00 18.05.10 280 (З) >10 км  {гроза, ливн. осадки}  10/4 600 м кучево-дожд., средняя 
[Cb calv|Ac und]
+13.6 +9.5 76 +14  1009.8  -0.6  718  274           
03 18.05.10 190 (Ю) >10 км    8/3 600 м кучево-дожд., средняя 
[Cb calv|Ac trans]
+14 +9.9 76 +17  1010.9  1.1  719  274           
06 18.05.10 020 (С) >10 км    4/0 средняя 
[Ac trans]
+20.1 +8.2 46 +20  1010.6  0.8  719  269  +13.1       
09 18.05.10 030 (СВ) >10 км    ясно 
+20.9 +8.8 46 +21  1010.5  719  268           
12 18.05.10 060 (СВ) >10 км    ясно 
+21.7 -0.9 22 +22  1009.2  -1.1  719  268           
15 18.05.10 070 (В) >10 км    1/0 средняя 
[Ac trans]
+20.5 +10.6 53 +23  1008.4  -0.9  718  267           
18 18.05.10 030 (СВ) >10 км    8/3 600 м кучево-дожд., средняя 
[Cb calv|Ac trans]
+16.7 +9.9 64 +19  1008.6  -0.5  718  271    +21.9       
21 18.05.10 200 (Ю) >10 км  гроза, ливневой дождь  9/5 600 м кучево-дожд., средняя 
[Cb cap|Ac trans]
+16.5 +11.3 71 +21  1008.4  -0.2  717  270           
00 19.05.10 140 (ЮВ) >10 км  гроза, ливневой дождь  9/5 600 м кучево-дожд., средняя 
[Cb cap|Ac trans]
+14.2 +12 87 +18  1008.3  -0.5  717  272           
03 19.05.10 210 (ЮЗ) >10 км  {гроза, ливн. осадки}  10/3 1000 м кучево-дожд., средняя 
[Cb calv|Ac und]
+14 +11 82 +18  1008.1  -0.7  724  275           
06 19.05.10 270 (З) >10 км  {гроза, ливн. осадки}  10/3 1000 м кучево-дожд., средняя 
[Cb calv|Ac und]
+17.7 +11.1 65 +22  1008.2  1.1  717  269  +13.8       
09 19.05.10 290 (З) >10 км    8/5 600 м кучево-дожд., средняя 
[Cb calv|Ac trans]
+19.1 +12.1 64 +24  1008.4  0.5  718  268           
12 19.05.10 260 (З) >10 км    8/5 600 м средняя 
[Cu med, cong|Ac trans]
+21 +8.9 46 +22  1008.2  0.1  718  267           
15 19.05.10 290 (З) >10 км    8/5 600 м кучево-дожд., средняя 
[Cb calv|Ac trans]
+19.2 +9.7 54 +21  1010.5  719  269           
18 19.05.10 290 (З) >10 км    5/0 средняя 
[Ac trans]
+15.1 +9.9 71 +17  1011.5  1.2  719  273    +21.7  0.0     
21 19.05.10 270 (З) >10 км    5/0 средняя 
[Ac trans]
+13.6 +9.5 76 +13  1011.6  -0.2  719  274           
00 20.05.10 280 (З) >10 км    3/0 средняя 
[Ac trans]
+12.2 +8.4 78 +11  1012.1  0.2  719  276           
03 20.05.10 280 (З) 10  >10 км    3/0 средняя 
[Ac trans]
+12.1 +8.2 77 +10  1011.7  -0.4  719  276           
06 20.05.10 270 (З) 11  >10 км    5/5 600 м 
[Cu hum]
+16.1 +9.4 64 +16  1011  0.1  719  272  +11.7         
09 20.05.10 300 (СЗ) >10 км    8/8 600 м 
[Cu hum]
+17.3 +9.5 60 +18  1011.1  0.2  719  271           
12 20.05.10 300 (СЗ) 10  >10 км    8/8 600 м 
[Cu hum]
+17.9 +10.3 61 +19  1010.8  -0.1  719  270           
15 20.05.10 320 (СЗ) >10 км    5/3 1000 м средняя 
[Cu med, cong|Ac trans]
+17.1 +11.8 71 +21  1011.1  0.1  719  270           
18 20.05.10 280 (З) >10 км    4/0 средняя 
[Ac trans]
+13.6 +11.1 85 +17  1011.8  0.1  719  274    +19.3       
21 20.05.10 280 (З) >10 км    3/0 средняя 
[Ac trans]
+12.9 +9.8 81 +14  1012.5  0.5  720  275           
00 21.05.10 270 (З) >10 км    3/0 средняя 
[Ac trans]
+11.4 +8.5 82 +10  1012.7  -0.1  720  277           
03 21.05.10 290 (З) >10 км    8/4 200 м средняя 
[Sc|Ac trans]
+11.3 +8.9 85 +11  1012.9  0.2  720  277           
06 21.05.10 280 (З) >10 км    8/5 300 м средняя 
[Sc|Ac trans]
+13.6 +9.7 77 +15  1012.9  0.4  720  275  +11.1         
09 21.05.10 270 (З) >10 км    9/5 600 м средняя 
[Sc|Ac trans]
+17 +10.3 65 +19  1011.9  -0.3  720  271           
12 21.05.10 310 (СЗ) >10 км    8/4 600 м средняя 
[Sc|Ac trans]
+15.5 +11.2 76 +19  1012.2  720  272           
15 21.05.10 300 (СЗ) >10 км    8/3 600 м средняя 
[Sc|Ac trans]
+15.9 +10.4 70 +19  1012.4  0.3  720  272           
18 21.05.10 300 (СЗ) >10 км    8/0 средняя 
[Ac trans]
+13 +9.7 80 +15  1013.6  0.6  721  275    +17.7       
21 21.05.10 290 (З) >10 км    3/0 средняя 
[Ac trans]
+11.4 +9.4 87 +12  1013.7  -0.3  720  277           
00 22.05.10 270 (З) >10 км    3/3 600 м 
[Sc]
+11.2 +10 92 +13  1013  -0.6  720  277           
03 22.05.10 280 (З) >10 км    8/6 180 м средняя 
[St|Ac trans]
+11.7 +10.5 92 +14  1012.3  -0.6  720  276           
06 22.05.10 320 (СЗ) >10 км    8/4 300 м кучево-дожд., средняя 
[Cb calv|Ac trans]
+14.7 +9.4 70 +16  1012.1  0.3  720  273  +10.3         
09 22.05.10 340 (С) >10 км    6/5 600 м кучево-дожд., средняя 
[Cb calv|Ac trans]
+17.5 +9 57 +19  1011.4  -0.1  720  271           
12 22.05.10 020 (С) >10 км    8/8 800 м кучево-дожд. 
[Cb calv]
+20.1 +9.4 50 +21  1009.9  -1  719  268           
15 22.05.10 080 (В) >10 км    8/4 600 м кучево-дожд., верхняя 
[Cb calv|Ci fib]
+20.3 +10.2 52 +23  1009.3  -0.6  719  268           
18 22.05.10 310 (СЗ) >10 км  зарница  8/5 600 м кучево-дожд., средняя 
[Cb calv|Ac trans]
+16.3 +13 81 +23  1010.4  0.5  719  271    +21.3       
21 22.05.10 250 (З) >10 км    8/3 600 м кучево-дожд., средняя 
[Cb calv|Ac trans]
+14 +10.7 80 +16  1010.9  719  273           
00 23.05.10 250 (З) >10 км  слаб. ливневой дождь  10/6 600 м кучево-дожд., средняя, верхняя 
[Cb cap|As op|Ci ing]
+13.4 +10.2 81 +16  1009.7  -1.3  718  274           
03 23.05.10 тихо ()   >10 км  {ливн. осадки}  8/4 600 м кучево-дожд., средняя 
[Cb calv|Ac trans]
+12.3 +10.5 89 +15  1010.2  0.3  718  275           
06 23.05.10 070 (В) >10 км  {ливн. осадки}  8/3 600 м средняя 
[Cu hum|Ac trans]
+17.6 +12.2 71 +23  1008.7  -0.5  718  269  +11.8       
09 23.05.10 130 (ЮВ) >10 км    9/6 800 м кучево-дожд., средняя 
[Cb calv|Ac trans]
+20.4 +11.8 58 +25  1006.7  -1.4  717  266           
12 23.05.10 150 (ЮВ) >10 км    8/5 600 м кучево-дожд., средняя 
[Cb calv|Ac trans]
+21 +11.9 56 +26  1005.2  -1.3  716  265           
15 23.05.10 110 (В) >10 км    9/5 600 м кучево-дожд., средняя 
[Cb calv|Ac trans]
+19.2 +11.2 60 +24  1004.4  -1.1  715  267           
18 23.05.10 330 (СЗ) >10 км  гроза, ливневой дождь  10/8 900 м кучево-дожд., средняя 
[Cb cap|Ac und]
+13 +11.5 91 +17  1006.9  1.3  716  273    +21.7       
21 23.05.10 220 (ЮЗ) >10 км  в посл. час ливневой дождь{гроза}  10/5 1000 м кучево-дожд., средняя 
[Cb calv|Ac und]
+12.9 +10.4 85 +15  1005.7  -1.1  715  273           
00 24.05.10 280 (З) >10 км  {гроза, ливн. осадки}  10/5 1000 м кучево-дожд., средняя 
[Cb calv|Ac und]
+12.6 +10 84 +14  1006.4  0.6  716  274           
03 24.05.10 290 (З) >10 км    9/5 600 м кучево-дожд., средняя 
[Cb calv|Ac trans]
+12.5 +10.6 88 +15  1007.3  0.8  716  274           
06 24.05.10 280 (З) >10 км  слаб. ливневой дождь  10/6 330 м кучево-дожд., средняя 
[Cb cap|Ac und]
+14.3 +12.5 89 +20  1008.2  1.2  717  272  +12.2       
09 24.05.10 310 (СЗ) >10 км  {ливн. осадки}  10/6 600 м кучево-дожд., средняя 
[Cb calv|Ac und]
+17 +11.9 72 +22  1008  0.3  717  270           
12 24.05.10 320 (СЗ) >10 км  гроза без осадков{ливн. осадки}  10/6 480 м кучево-дожд., средняя 
[Cb calv|Ac und]
+15.8 +11.1 74 +19  1008.6  0.3  717  271           
15 24.05.10 290 (З) 10  >10 км  {гроза}  5/3 1000 м кучево-дожд., средняя 
[Cb calv|Ac trans]
+16.5 +10.5 68 +19  1008.8  0.4  718  271           
18 24.05.10 300 (СЗ) >10 км  {гроза}  4/0 средняя 
[Ac trans]
+13.8 +9.7 76 +15  1010.5  1.1  719  274    +18.1     
21 24.05.10 280 (З) >10 км    4/0 средняя 
[Ac trans]
+13.3 +9.5 78 +13  1011.1  0.4  719  274           
00 25.05.10 280 (З) >10 км    3/0 средняя 
[Ac trans]
+12.8 +9.4 80 +13  1011.6  0.4  719  275           
03 25.05.10 270 (З) >10 км    3/0 средняя 
[Ac trans]
+13.9 +9.7 76 +15  1011.5  0.1  719  274           
06 25.05.10 250 (З) >10 км    8/3 600 м кучево-дожд., средняя 
[Cb calv|Ac trans]
+16.9 +11.2 69 +20  1011.5  0.6  720  271  +12.7         
09 25.05.10 280 (З) 10  >10 км    8/4 600 м кучево-дожд., средняя 
[Cb calv|Ac trans]
+20 +10.9 56 +23  1011.2  0.2  720  268           
12 25.05.10 330 (СЗ) >10 км  гроза без осадков{ливн. осадки}  8/5 600 м кучево-дожд., средняя 
[Cb calv|Ac trans]
+18.4 +12.3 68 +24  1011.4  720  269           
15 25.05.10 270 (З) >10 км  {гроза, ливн. осадки}  8/3 600 м кучево-дожд., верхняя 
[Cb calv|Ci]
+18.2 +11.9 67 +23  1011.9  0.5  720  270           
18 25.05.10 300 (СЗ) >10 км  {гроза, ливн. осадки}  3/0 верхняя 
[Ci fib]
+15.2 +9.8 70 +17  1013.1  0.5  721  273    +20.8  0.6     
21 25.05.10 280 (З) >10 км    ясно 
+14.4 +7 61 +14  1013.1  -0.2  720  275           
00 26.05.10 260 (З) >10 км    ясно 
+13.5 +6.8 64 +13  1013  -0.3  720  275           
03 26.05.10 240 (ЮЗ) >10 км    1/0 верхняя 
[Ci fib]
+13.6 +8 69 +13  1012.9  720  275           
06 26.05.10 250 (З) >10 км    1/0 верхняя 
[Ci fib]
+18.8 +7.4 47 +19  1012.6  0.6  721  270  +10.8         
09 26.05.10 280 (З) >10 км    3/3 600 м верхняя 
[Cu hum|Ci fib]
+21.8 +9.3 45 +23  1011.5  -0.5  720  267           
12 26.05.10 270 (З) 10  >10 км    3/3 600 м верхняя 
[Cu hum|Ci sp]
+22.8 +7.7 38 +23  1010.9  -0.4  720  266           
15 26.05.10 280 (З) >10 км    3/1 600 м верхняя 
[Cu hum|Ci sp]
+21.8 +7.8 40 +22  1011.4  0.3  720  267           
18 26.05.10 280 (З) >10 км    5/0 средняя 
[Ac trans]
+18.1 +7.7 51 +18  1012.8  0.7  721  271    +23.2       
21 26.05.10 270 (З) >10 км    3/0 верхняя 
[Ci sp]
+18 +5.5 44 +18  1012.9  721  272           
00 27.05.10 270 (З) >10 км    3/0 верхняя 
[Ci sp]
+16.9 +6.8 51 +16  1013.1  721  272           
03 27.05.10 270 (З) >10 км    3/1 600 м средняя 
[Sc diur, vesp|Ac trans]
+17 +8 55 +17  1012.8  -0.3  721  272           
06 27.05.10 250 (З) >10 км    4/3 600 м средняя 
[Cu hum|Ac trans]
+19.4 +8.9 51 +20  1013.7  1.3  722  270  +16.7         
09 27.05.10 290 (З) >10 км    5/4 600 м средняя 
[Cu med, cong|Ac trans]
+22.6 +11.8 50 +27  1012.9  -0.1  721  266           
12 27.05.10 290 (З) >10 км    4/3 600 м средняя 
[Cu med, cong|Ac trans]
+24.2 +12.4 48 +30  1011.9  -0.6  721  264           
15 27.05.10 300 (СЗ) >10 км    8/3 600 м средняя 
[Cu med, cong|Ac trans]
+24.1 +11.8 46 +29  1011.6  -0.4  721  265           
18 27.05.10 260 (З) >10 км    3/0 средняя 
[Ac trans]
+17.8 +12 69 +24  1013.5  0.8  721  270    +24.8       
21 27.05.10 270 (З) >10 км    3/0 средняя 
[Ac trans]
+15.4 +11.3 77 +20  1013.5  -0.4  721  273           
00 28.05.10 290 (З) >10 км    3/0 средняя 
[Ac trans]
+16.8 +10.6 67 +20  1013.3  -0.1  721  272           
03 28.05.10 250 (З) >10 км    3/0 средняя 
[Ac trans]
+15.6 +11.8 78 +20  1013.6  0.2  721  273           
06 28.05.10 290 (З) 98  >10 км    4/0 средняя 
[Ac trans]
+22.2 +22  1012.6  0.2  721  269  +15.3         
09 28.05.10 360 (С) >10 км    8/3 600 м средняя 
[Cu hum|Ac trans]
+24.6 +13.7 51 +32  1011.7  -0.4  721  264           
12 28.05.10 340 (С) >10 км    8/3 600 м средняя 
[Cu hum|Ac trans]
+25.1 +13.3 48 +32  1011.6  -0.1  721  263           
15 28.05.10 320 (СЗ) >10 км    8/3 600 м средняя 
[Cu hum|Ac trans]
+24.8 +11.7 44 +29  1011.2  -0.4  721  264           
18 28.05.10 160 (Ю) >10 км    4/3 1000 м кучево-дожд., верхняя 
[Cb calv|Ci fib]
+20.7 +11.8 57 +25  1012.3  0.4  721  268    +25.8       
21 28.05.10 020 (С) >10 км    4/3 1000 м кучево-дожд., средняя 
[Cb calv|Ac trans]
+16.4 +12.8 79 +23  1013.2  721  271           
00 29.05.10 170 (Ю) >10 км    3/0 средняя 
[Ac trans]
+13.9 +12.6 92 +20  1014.4  0.7  721  274           
03 29.05.10 150 (ЮВ) >10 км    4/3 1000 м кучево-дожд., средняя 
[Cb calv|Ac trans]
+16.5 +13.6 83 +24  1013.9  721  271           
06 29.05.10 330 (СЗ) >10 км    3/0 средняя 
[Ac trans]
+20.7 +14.8 69 +30      722  267  +13         
09 29.05.10 310 (СЗ) >10 км    5/5 600 м 
[Cu hum]
+23.2 +15.2 61 +33  1013.5  -0.3  722  265           
12 29.05.10 100 (В) >10 км  гроза, ливневой дождь  8/8 800 м кучево-дожд. 
[Cb cap]
+23.6 +15.5 60 +34  1012.9  -0.5  722  264           
15 29.05.10 040 (СВ) >10 км  {гроза, ливн. осадки}  6/5 600 м кучево-дожд., средняя 
[Cb calv|Ac trans]
+20.1 +14.4 70 +29  1013.4  -0.1  722  268           
18 29.05.10 170 (Ю) >10 км  {гроза, ливн. осадки}  4/0 средняя 
[Ac trans]
+19.1 +12.9 67 +26  1014.7  -1.1  722  269    +25.7  14     
21 29.05.10 230 (ЮЗ) >10 км    3/0 средняя 
[Ac trans]
+16.7 +13.2 80 +24  1015  -0.2  722  272           
00 30.05.10 070 (В) >10 км    3/0 средняя 
[Ac trans]
+14 +12 88 +19  1015  -0.5  722  274           
03 30.05.10 120 (ЮВ) >10 км    3/0 средняя 
[Ac trans]
+15.3 +12.6 84 +23  1015.3  0.5  722  273           
06 30.05.10 170 (Ю) >10 км    ясно 
+22.3 +14.3 60 +31  1014  722  266  +13.3         
09 30.05.10 080 (В) >10 км  гроза без осадков  6/6 600 м кучево-дожд. 
[Cb cap]
+25 +13.2 48 +32  1013.5  -0.1  722  264           
12 30.05.10 170 (Ю) >10 км  в посл. час гроза  6/5 1000 м кучево-дожд., средняя 
[Cb calv|Ac trans]
+24.2 +14.9 56 +34  1013.7  0.2  722  264           
15 30.05.10 110 (В) >10 км    8/5 1000 м кучево-дожд., средняя 
[Cb calv|Ac trans]
+22.4 +15.9 67 +34  1013.7  -0.3  722  265           
18 30.05.10 190 (Ю) >10 км    10/4 1000 м кучево-дожд., средняя 
[Cb calv|Ac und]
+18.4 +12.3 68 +24  1015.2  0.7  723  270    +25.2       
21 30.05.10 340 (С) >10 км    8/3 1000 м кучево-дожд., средняя 
[Cb calv|Ac trans]
+16.7 +13.3 80 +25  1015.6  0.1  723  272           
00 31.05.10 010 (С) >10 км    4/0 средняя 
[Ac trans]
+13.9 +11.4 85 +18  1015.3  -0.8  722  275           
03 31.05.10 180 (Ю) >10 км    6/0 средняя, верхняя 
[Ac trans|Ci sp]
+14.6 +12.6 88 +21  1015.2  722  274           
06 31.05.10 140 (ЮВ) >10 км    1/0 средняя 
[Ac trans]
+20.9 +15.1 69 +31  1014  722  267  +13.2         
09 31.05.10 130 (ЮВ) >10 км    3/1 600 м верхняя 
[Cu hum|Ci fib]
+25.3 +12.5 45 +31  1013.5  0.2  722  264           
12 31.05.10 130 (ЮВ) >10 км    8/1 600 м верхняя 
[Cu hum|Ci fib]
+25.9 +13.3 46 +33  1012.4  -0.9  722  263           
15 31.05.10 110 (В) >10 км    8/0 верхняя 
[Ci fib]
+23.5 +12.9 51 +30    0.1  722  265           
18 31.05.10 110 (В) >10 км    8/0 верхняя 
[Ci fib]
+18 +12.2 69 +23  1014.4  0.4  722  270    +26.1       
21 31.05.10 110 (В) >10 км    8/0 верхняя 
[Ci fib]
+16.5 +10.9 69 +19  1014.4  -0.2  722  272           
00 01.06.10 130 (ЮВ) >10 км    4/0 верхняя 
[Ci fib]
+14.7 +11.3 80 +19  1014.6  -0.2  722  274           
03 01.06.10 110 (В) >10 км    1/0 верхняя 
[Ci fib]
+15 +10.9 77 +18  1014.6  0.1  722  274           
Время (UTC), дата Ветер
(°,м/с) 
Видим.   Явления Облачность Т
(°С)
Тd
(°С)
f(%) Тe
(°С)
Pmin
(гПа)
dP
(гПа)
Po
(мм)
O2
(г/м3)
Тmin Tmax R s Состояние
почвы